Regional Weather Roundup
Issued by NWS New Orleans/Baton Rouge, LA

Home | Current Version | Previous Version | Text Only | Print | Product List | Glossary On
Versions: 1 2 3 4 5 6 7 8 9 10 11 12 13 14 15 16 17 18 19 20 21 22 23 24 25 26 27 28 29 30 31 32 33 34 35 36 37 38 39 40 41 42 43 44 45 46 47 48 49 50
146
ASUS44 KLIX 021605
RWRLIX
NEW ORLEANS REGIONAL WEATHER ROUNDUP
NATIONAL WEATHER SERVICE NEW ORLEANS LA
1100 AM CDT TUE SEP 02 2014

NOTE: "FAIR" INDICATES FEW OR NO CLOUDS BELOW 12,000 FEET WITH NO
      SIGNIFICANT WEATHER AND/OR OBSTRUCTIONS TO VISIBILITY.
      SKY/WX - SKY CONDITION AND SIGNIFICANT WEATHER.
      TMP - AIR TEMPERATURE.     DP    - DEWPOINT TEMPERATURE.
      RH  - RELATIVE HUMIDITY.   PRES  - PRESSURE.
      HI  - HEAT INDEX.          WCI   - WIND CHILL INDEX.

*  THESE STATIONS ARE NOT NWS OR FAA STATIONS AND ARE NOT UNDER
   NWS QUALITY CONTROL.

LAZ038-040-048-061>063-065>067-069-021700-
SOUTHEAST LOUISIANA

CITY           SKY/WX    TMP DP  RH WIND       PRES   REMARKS
N.O. AUDUBON     N/A    N/A N/A N/A MISG        N/A
N.O. INTL ARPT PTSUNNY   89  74  60 S9        30.07R HX  98
N.O. LAKEFRONT MOSUNNY   87  75  67 SE6       30.08R HX  96
N.O. DOWNTOWN* CLOUDY    90  72  55 S5        30.08R HX  96
SLIDELL        PTSUNNY   86  76  71 S7        30.07S HX  96
BATON ROUGE    MOSUNNY   90  75  61 S9        30.07R HX 100
BOOTHVILLE     MOSUNNY   88  75  65 SE7       30.09R HX  97
BELLE CHASSE   PTSUNNY   89  74  60 VRB6      30.07R HX  98
BOGALUSA*        N/A     86  76  71 SW3       30.10R HX  95
GALLIANO*      NOT AVBL
NEW ROADS*       N/A     87  77  72 S7        30.06F HX  97
GONZALES*      PTSUNNY   88  78  72 SE7       30.06S HX 101
HAMMOND*       MOSUNNY   88  72  58 SW8       30.09S
HOUMA*         MOSUNNY   90  72  55 SE12      30.07S HX  96
PORT FOURCHON* MOSUNNY   88  75  66 SE9       30.09S HX  97

$$

MSZ070-080>082-021700-
SOUTHERN MISSISSIPPI

CITY           SKY/WX    TMP DP  RH WIND       PRES   REMARKS
MCCOMB         MOSUNNY   85  73  67 S7        30.09S
GULFPORT       MOSUNNY   88  75  65 S7        30.08R HX  97
BILOXI         MOSUNNY   89  77  67 S6        30.08S HX 100
PASCAGOULA     MOSUNNY   88  74  63 SE3       30.08S HX  96
STENNIS ARPT*  MOSUNNY  N/A N/A N/A S9        30.08R

$$

COASTAL OBSERVATIONS
LAKE AND NEARSHORE STATIONS

STATION/POSITION TIME  TEMP    WIND        PRES    WAVE
                       AIR SEA DIR/SP/G            HT/PER
                 (UTC) (F)     (DEG/KT/KT) (MB)    (FT/S)
PASCAGOULA       1600   87     180/  6/  8 1018.3
WAVELAND YACHT   1600   84     180/  7/  9 1017.9
GRAND ISLE       1600   86 85  140/  5/  9 1019.3
SOUTHWEST PASS   1600   90 90  120/  6/  8 1018.9
NEW CANAL        1600   87 81  190/  5/  6 1018.8
SHELL BEACH      1600   86 81  130/  3/  6 1018.5

OFFSHORE STATIONS

STATION/POSITION TIME  TEMP    WIND        PRES    WAVE
                       AIR SEA DIR/SP/G            HT/PER
                 (UTC) (F)     (DEG/KT/KT) (MB)    (FT/S)
64 S DAUPHIN ISL 1549   84 86  120/  4/  6 1019.0

$$




USA.gov is the U.S. government's official web portal to all federal, state and local government web resources and services.